MDT,Max TemperatureF,Mean TemperatureF,Min TemperatureF,Max Dew PointF,MeanDew PointF,Min DewpointF,Max Humidity, Mean Humidity, Min Humidity, Max Sea Level PressureIn, Mean Sea Level PressureIn, Min Sea Level PressureIn, Max VisibilityMiles, Mean VisibilityMiles, Min VisibilityMiles, Max Wind SpeedMPH, Mean Wind SpeedMPH, Max Gust SpeedMPH,PrecipitationIn, CloudCover, Events, WindDirDegrees
2012-10-1,83,69,55,47,40,32,72,37,16,30.21,30.15,30.08,10,10,10,9,5,26,0.00,0,,81
2012-10-2,87,72,56,47,38,28,66,33,13,30.18,30.09,29.99,10,10,10,16,8,24,0.00,0,,208
2012-10-3,92,73,54,34,29,25,42,21,9,30.12,30.06,30.00,10,10,10,23,9,33,0.00,0,,273
2012-10-4,89,72,55,33,30,28,41,21,11,30.25,30.18,30.12,10,10,10,17,8,21,0.00,0,,266
2012-10-5,86,70,53,35,29,18,44,22,11,30.20,30.12,30.04,10,10,7,30,11,38,0.00,0,,268
2012-10-6,84,70,57,30,26,21,30,20,13,30.12,30.05,29.96,10,10,10,20,9,24,0.00,0,,254
2012-10-7,72,60,49,45,40,29,68,49,25,30.18,30.09,30.03,10,10,10,17,11,24,0.00,0,,148
2012-10-8,81,63,45,42,37,29,72,40,15,30.17,30.09,30.02,10,10,10,17,6,18,0.00,0,,200
2012-10-9,84,70,55,34,29,24,39,24,13,30.14,30.08,30.02,10,10,10,13,8,18,0.00,0,,262
2012-10-10,84,69,54,40,30,25,39,25,14,30.17,30.10,30.03,10,10,10,13,7,17,0.00,0,,153
2012-10-11,76,66,56,49,44,37,62,45,24,30.16,30.10,30.06,10,10,10,13,6,16,0.00,2,Rain,156
2012-10-12,85,70,54,55,45,25,87,49,14,30.15,30.07,29.99,10,9,5,31,9,41,0.00,2,,214
2012-10-13,74,60,45,33,27,22,54,29,14,30.18,30.12,30.07,10,10,10,16,9,23,0.00,0,,275
2012-10-14,77,64,51,36,31,26,47,30,17,30.31,30.23,30.17,10,10,10,14,8,20,0.00,0,,76
2012-10-15,75,66,57,36,33,31,40,35,21,30.25,30.08,30.05,10,10,10,7,4,,0.00,0,,256
2012-10-16,60,52,46,37,33,32,60,43,37,30.05,30.04,30.00,10,10,10,7,2,,0.00,0,,240
2012-10-17,81,74,65,30,29,28,26,20,14,30.00,29.96,29.92,10,10,10,15,12,,0.00,0,,258
2012-10-18,82,66,51,30,26,21,42,25,12,30.09,30.05,30.02,10,10,10,9,6,,0.00,0,,265
2012-10-19,83,69,55,27,20,17,31,15,9,30.12,30.02,29.99,10,10,10,8,5,,0.00,0,,226
2012-10-20,84,68,52,37,31,21,37,26,14,30.02,29.96,29.88,10,10,10,16,4,22,0.00,0,,264
2012-10-21,81,67,53,44,37,33,49,33,19,30.06,30.00,29.95,10,10,2,30,12,53,0.00,1,Rain-Thunderstorm,250
2012-10-22,78,62,47,41,35,31,63,38,19,30.09,30.02,29.99,10,10,10,16,7,31,0.00,0,,257
2012-10-23,82,64,46,35,31,28,53,29,14,30.08,30.01,29.97,10,10,10,13,5,17,0.00,0,,232
2012-10-24,82,66,49,35,30,26,49,28,13,30.03,29.96,29.90,10,10,10,22,7,29,0.00,0,,257
2012-10-25,73,59,45,31,20,13,44,23,10,30.11,30.04,29.97,10,10,10,17,9,22,0.00,0,,255
2012-10-26,66,54,43,32,25,16,55,33,17,30.27,30.19,30.07,10,10,10,16,8,22,0.00,0,,105
2012-10-27,63,50,37,32,28,22,59,45,30,30.26,30.18,30.08,10,10,10,15,7,20,0.00,0,,136
2012-10-28,71,52,34,32,28,22,67,41,18,30.23,30.17,30.12,10,10,10,8,3,,0.00,0,,200
2012-10-29,77,57,37,30,23,13,56,30,10,30.27,30.19,30.12,10,10,10,13,3,,0.00,0,,272
2012-10-30,79,61,43,17,13,8,29,17,9,30.20,30.14,30.08,10,10,10,10,5,,0.00,0,,312
2012-10-31,77,58,38,20,14,7,30,20,10,30.19,30.13,30.09,10,10,10,9,4,,0.00,0,,261